Showing default

COSMOS 2269, 23000

Orbit data source: Space-Track

COSMOS 2269, 23000 is a payload satellite owned by VKS (CIS) in LEO that was launched on Sat, 12 Feb 1994 UTC via a TSIKLON-3 launch vehicle from the Plesetsk Missile And Space Complex (PKMTR). Payload-class satellites include a variety of spacecraft equipped with specific instruments for various scientific and technological missions. These include communications satellites like Starlink; space stations such as the ISS; scientific satellites like the Hubble; Earth observation satellites from companies like Planet Labs, Umbra, and HawkEye 360; GPS; miniature CubeSats for education and research; and military/defense satellites.

Loading next visibility...
Identifier
23000, 1994-011B
Orbit
LEO
Country
Flag of CISCIS
Related business
Manufacturer
NPO PM
Mission
Defense Communications
Bus & Motor
STRELA-3, Unknown motor
Mass
225 kg wet, 225 kg dry
Launch date (UTC)
1994-02-12 (32 years ago)
Launch vehicle
TSIKLON-3
Launch site
Plesetsk Missile And Space Complex (PKMTR)
Object type
Payload
Rocket body
Debris
Shape & HBR
Cyl, 0.8 m
Radar Cross Section
1.257 m², Large (>1 m²)

Expand to show TLE details & history
Last TLE update: 7 hours ago

TLE from 7 hours ago
0 COSMOS 2269
1 23000U 94011B   25304.85979985  .00000059  00000-0  26993-3 0  9990
2 23000  82.5634 106.9246 0006836 354.7225 116.0236 12.61936449460873
Epoch: 2025-10-31T20:38Z
TLE epoch observation values (Epoch: 2025-10-31T20:38:06.707Z)
Latitude
68.02551°
Longitude
-81.77849°
Altitude
1,429.049 km
Speed
7.152 km/s
True Right ascension
17h 52m 35s
True Declination
67° 54' 58"
Sunlit
Object was in daylight at epoch
Visualization orbit readout
Latitude
Unknown
Longitude
Unknown
Altitude
Unknown
Speed
Unknown
Apparent Right ascension
Unknown
Apparent Declination
Unknown
Sunlit
N/A
Visualization observer readout
Local Sidereal Time
23:42:54
Azimuth
Unknown
Elevation
Unknown
Doppler factor
Unknown
Orbital elements
Apogee altitude
1,417.609 km
Perigee altitude
1,406.958 km
Semi-major axis
7,790.421 km
Eccentricity
0.00068
Inclination
82.5634°
RAAN
106.9246°
Arg. of periapsis
354.7225°
True anomaly
116.09397°
Mean anomaly
116.0236°
Eccentric anomaly
116.05879°
Mean motion
3.15647 °/min
Orbital period
114.05 mins
BSTAR
0.00026993
Loading maneuver chart data...
Computing Atmospheric mass density...
Loading historical data...
Loading historical data...
Loading historical data...
Loading historical data...
Loading historical data...
Loading historical data...
Loading historical data...

Documentation

Showing up to 5 results
|